Volver al catálogo

STARLINK-36612

ActivoComunicacionesSSO
NORAD 67580·PAYLOAD·🇺🇸 United States

Lanzado Jan 25, 2026 desde Vandenberg Space Force Base

Loading…

Próximos Pases (próximas 24 horas)

TLE

ActualizadoSource: CelesTrak SupGP

Época: Sep 14, 2026, 20:58 UTC

1 67580C 26016V   26257.87409722 -.00022420  00000+0 -69613-3 0  2578
2 67580  97.2848 316.6802 0000983  86.9522 223.6074 15.33443476    19

Sigue STARLINK-36612 en tiempo real con AllMySat

Download on the App Store